Home   Weather   Des Moines   Past weeks
Flag for USA

Past Weather in Des Moines, Iowa, USA — Yesterday and Last 2 Weeks

Now
62 °F

Sunny.


Feels Like: 62 °F
Forecast: 75 / 38 °F
Wind: 8 mph from North

Location: Des Moines International Airport

Current Time: Apr 19, 2019 at 7:30:38 pm

Latest Report: Apr 19, 2019 at 6:54 pm


Visibility: 10 mi

Pressure: 29.95 "Hg

Humidity: 25%

Dew Point: 26 °F

Location of Des MoinesLocation

Past Weather in Des Moines — Graph

°F

Des Moines Temperature Yesterday

Maximum temperature yesterday: 55 °F (at 1:54 pm)
Minimum temperature yesterday: 45 °F (at 3:54 am)
Average temperature yesterday: 49 °F

High & Low Weather Summary for the Past Weeks

 TemperatureHumidityPressure
High80 °F (Apr 8, 4:54 pm)97% (Apr 5, 5:54 am)30.18 "Hg (Apr 5, 5:54 am)
Low27 °F (Apr 13, 5:54 am)25% (Apr 19, 4:54 pm)29.28 "Hg (Apr 11, 2:15 pm)
Average52 °F63%29.84 "Hg
* Reported Apr 4 5:54 pm — Apr 19 5:54 pm, Des Moines. Weather by CustomWeather, © 2019

Note: Actual official high and low records may vary slightly from our data, if they occured in-between our weather recording intervals... More about our weather records

Advertising

Des Moines Weather History for the Previous 24 Hours

Scroll right to see more
 ConditionsComfort  
Time TempWeatherWind HumidityBarometerVisibility
5:54 pm
Fri, Apr 19
63 °FSunny.13 mph27%29.96 "Hg10 mi
4:54 pm64 °FSunny.10 mph25%29.96 "Hg10 mi
3:54 pm63 °FPassing clouds.15 mph26%29.97 "Hg10 mi
2:54 pm62 °FPassing clouds.14 mph27%30.01 "Hg10 mi
1:54 pm60 °FPassing clouds.15 mph32%30.02 "Hg10 mi
12:54 pm59 °FPassing clouds.13 mph36%30.04 "Hg10 mi
11:54 am57 °FScattered clouds.17 mph41%30.06 "Hg10 mi
10:54 am53 °FScattered clouds.10 mph52%30.06 "Hg10 mi
9:54 am51 °FPassing clouds.10 mph59%30.06 "Hg10 mi
8:54 am47 °FSunny.10 mph69%30.05 "Hg10 mi
7:54 am44 °FSunny.9 mph73%30.05 "Hg10 mi
6:54 am40 °FPassing clouds.7 mph83%30.04 "Hg10 mi
5:54 am41 °FPassing clouds.7 mph80%30.01 "Hg10 mi
4:54 am41 °FClear.8 mph80%30.00 "Hg10 mi
3:54 am43 °FClear.12 mph76%29.98 "Hg10 mi
2:54 am43 °FPassing clouds.7 mph79%29.97 "Hg10 mi
1:54 am44 °FPassing clouds.6 mph76%29.96 "Hg10 mi
12:54 am45 °FPassing clouds.8 mph76%29.96 "Hg10 mi
11:54 pm
Thu, Apr 18
46 °FPassing clouds.9 mph73%29.95 "Hg10 mi
10:54 pm47 °FPassing clouds.8 mph69%29.94 "Hg10 mi
9:54 pm48 °FPassing clouds.9 mph66%29.94 "Hg10 mi
8:54 pm50 °FPassing clouds.12 mph61%29.93 "Hg10 mi
7:54 pm50 °FOvercast.9 mph59%29.92 "Hg10 mi
Weather by CustomWeather, © 2019

See weather overview